Regional Weather Roundup
Issued by NWS

Home | Current Version | Previous Version | Graphics & Text | Print | Product List | Glossary On
Versions: 1 2 3 4 5 6 7 8 9 10 11 12 13 14 15 16 17 18 19 20 21 22 23 24 25 26 27 28 29 30 31 32 33 34 35 36 37 38 39 40 41 42 43 44 45 46 47 48 49 50
000
ASUS45 KSLC 300710
RWRUT

UTAH REGIONAL WEATHER ROUNDUP
NATIONAL WEATHER SERVICE SALT LAKE CITY UT
100 AM MDT THU JUL 30 2015

UTZ001>011-023>025-300800-

NORTHERN UTAH

CITY           SKY/WX    TMP DP  RH WIND       PRES   REMARKS
BRIGHAM CITY   CLEAR     62  39  42 N3        30.26R
HILL AFB       CLEAR     65  32  29 E15       30.27R
LOGAN          CLEAR     57  37  47 CALM      30.28R
OGDEN          CLEAR     63  34  33 S9        30.25R
PROVO AIRPORT  CLEAR     63  36  36 SE8       30.27R
SALT LAKE CITY CLEAR     67  36  31 S7        30.24R
VERNAL         CLEAR     61  33  35 NW3       30.28S
WENDOVER       CLEAR     68  37  32 CALM      30.25S
HEBER CITY     CLEAR     48  34  57 CALM      30.35R
WEST JORDAN    CLEAR     63  32  31 CALM      30.27S

$$

UTZ012>022-026-027-300800-

SOUTHERN/CENTRAL UTAH

CITY           SKY/WX    TMP DP  RH WIND       PRES   REMARKS
BLANDING       MOCLDY    69  38  31 SE5       30.40R
BRYCE CANYON   CLEAR     63  23  21 NE12      30.45R
CEDAR CITY     PTCLDY    69  22  16 N5        30.26S
DELTA          CLEAR     69  26  19 NE7       30.24S
HANKSVILLE     CLEAR     70  27  19 E6        30.21R
MILFORD        CLEAR     62  17  17 N6        30.23R
MOAB/CYNLANDS  CLEAR     71  22  15 W6        30.17S
PRICE          CLEAR     70  21  15 CALM      30.32R
ST GEORGE      SUNNY     82  36  18 SE5       30.05R
KANAB          PTCLDY    73  34  23 N5        30.26R

$$

REGIONAL REPORTS     COLORADO/ARIZONA

CITY           SKY/WX    TMP DP  RH WIND       PRES   REMARKS
CRAIG, CO      CLEAR     42  29  59 W3        30.38R
GRAND JUNCTION PTCLDY    66  29  24 CALM      30.22R
RIFLE          PTCLDY    63  31  30 CALM      30.31R
MONTROSE       PTCLDY    65  33  30 SE8       30.32R
CORTEZ         CLEAR     61  45  55 E6        30.35R
PAGE, AZ       PTCLDY    80  54  40 VRB3      30.19R
GRAND CANYON   PTCLDY    68  52  56 S6        30.38R
KINGMAN        CLOUDY    84  57  39 S16       30.10S
FLAGSTAFF      MOCLDY    60  51  72 CALM      30.41F

$$

REGIONAL REPORTS    NEVADA/IDAHO/WYOMING

CITY           SKY/WX    TMP DP  RH WIND       PRES   REMARKS
LAS VEGAS, NV  CLOUDY    90  52  27 S13G18    29.95R
ELY            PTCLDY    64  23  21 E8        30.35R
ELKO           CLEAR     64  27  24 NE5       30.27R
POCATELLO, ID  CLEAR     53  39  59 N3        30.28R
BURLEY         CLEAR     55  42  61 CALM      30.24R
EVANSTON, WY   CLEAR     55  22  27 E3        30.45R
ROCK SPRINGS   CLEAR     58  18  21 W10       30.41S
KEMMERER       CLEAR     50  32  50 N10       30.46S

$$


USA.gov is the U.S. government's official web portal to all federal, state and local government web resources and services.